Location: Moreno
(33.9175°N, 117.1578°W)
Time: 06:40:46
(UTC+00:00)

Cosmos 1733 Rocket - Pass Details

Date: 18 April 2024
Orbit: 599 x 625 km, 82.5° (Epoch: 28 May)

Event Time Altitude Azimuth Distance (km) Brightness Sun altitude
Rises 12:42:12 0° 360° (N) 2,871 6.7 -7.0°
Reaches altitude 10° 12:44:30 10° 6° (N) 1,959 6.0 -6.6°
Maximum altitude 12:48:41 48° 81° (E) 790 4.2 -5.8°
Drops below altitude 10° 12:52:50 10° 156° (SSE) 1,935 5.7 -4.9°
Sets 12:55:05 0° 162° (SSE) 2,831 6.5 -4.5°
